Temperature
15 15 15 15 15 15 15 15 15 15 15 15 15 15 15 14 14 14 14 14 14 14 14 14 14 14 14 14 14 15 15 15 15 15 15 15 15 15 15 15 15 15 15
15 15 15 15 15 15 15 15 15 15 14 14 14 14 14 14 14 14 14 14 14 14 14 14 14 14 14 14 14 14 14 14 14 14 15 15 14 15 15 15 15 15 15
15 15 15 15 15 14 14 14 14 14 14 14 14 14 14 14 14 14 14 14 14 14 14 14 14 14 14 14 14 14 14 14 14 14 14 14 14 14 14 15 15 15 15
15 14 14 14 14 14 14 14 14 14 14 14 14 14 14 14 13 13 13 13 13 13 14 14 14 14 14 14 14 14 14 14 14 14 14 14 14 14 14 14 14 15 14
14 14 14 14 14 14 14 14 14 14 14 14 14 14 14 13 13 13 13 13 13 13 13 13 13 13 13 14 14 13 13 13 13 14 14 14 14 14 14 14 14 14 14
14 14 14 14 14 14 13 13 13 13 13 13 13 13 13 13 13 13 13 13 12 12 13 13 13 13 13 13 13 13 13 13 13 13 13 13 14 14 14 14 14 14 14
14 14 14 14 13 13 13 13 13 13 13 13 13 13 13 13 13 12 12 12 12 12 12 12 12 13 13 13 13 13 13 13 13 13 13 13 13 13 14 14 14 14 14
13 13 13 13 13 13 13 13 13 13 13 13 13 12 12 12 12 12 12 12 12 12 12 12 12 12 12 12 13 13 13 13 13 13 13 13 13 13 13 13 13 13 13
13 13 13 13 13 13 13 13 12 12 12 12 12 12 12 12 11 12 12 12 12 11 11 11 12 12 12 12 12 12 12 13 13 12 12 12 12 13 13 13 13 13 13
13 13 13 13 13 13 12 12 12 12 12 12 12 12 12 11 11 11 11 11 11 11 11 11 11 11 12 12 12 12 12 12 12 12 12 12 12 12 12 13 13 13 13
13 13 13 13 12 12 12 12 12 12 12 12 12 12 11 11 11 11 11 11 11 11 11 11 11 11 11 12 12 12 12 12 12 12 12 12 12 12 12 12 12 12 12
13 12 12 12 12 12 12 12 12 12 12 11 11 11 11 11 11 11 10 11 11 11 11 11 11 11 11 11 11 11 12 12 12 12 12 12 12 12 12 12 12 12 12
12 12 12 12 12 12 12 11 11 11 11 11 11 11 11 11 11 10 10 10 10 10 11 11 11 11 11 11 11 11 11 11 11 11 12 12 12 12 12 12 12 12 12
12 12 12 12 11 11 11 11 11 11 11 11 11 11 11 11 11 10 10 10 10 10 10 10 10 10 10 10 11 11 11 11 11 11 11 11 12 12 12 12 12 12 12
12 12 12 11 11 11 11 11 11 11 11 11 11 10 10 10 10 10 10 10 10 9 9 10 10 10 10 10 10 10 11 11 11 11 11 11 11 11 12 12 12 12 11
12 12 11 11 11 11 11 11 11 11 10 10 10 10 10 10 10 10 10 10 10 9 9 9 9 10 10 10 10 10 10 10 10 11 11 11 11 11 11 11 11 11 11
12 11 11 11 11 11 10 10 10 10 10 10 10 10 10 10 10 10 10 9 9 9 9 9 9 10 10 10 10 10 10 10 10 10 10 10 11 11 11 11 11 11 11
11 11 11 11 11 10 10 10 10 10 10 10 10 10 10 10 9 9 9 9 9 9 9 9 9 9 9 9 9 10 10 10 10 10 10 10 10 10 10 10 10 10 10
11 11 11 11 10 10 10 10 10 10 10 10 10 9 9 9 9 9 9 9 9 9 9 9 9 9 9 9 9 9 9 9 9 9 9 10 10 10 10 10 10 10 10
11 11 11 10 10 10 10 10 10 10 10 9 9 9 9 9 9 9 9 9 9 9 9 9 9 9 9 9 9 9 9 9 9 9 9 9 9 9 9 9 10 10 10
11 11 10 10 10 10 10 9 9 9 9 9 9 9 9 9 9 9 9 8 8 8 8 8 8 8 8 8 8 8 8 8 8 8 9 9 8 9 9 9 9 9 9
10 10 10 10 10 10 9 9 9 9 9 9 9 9 8 8 8 8 8 8 8 8 8 8 8 8 8 8 8 8 8 8 8 8 8 8 8 8 8 8 8 9 9
10 10 10 10 10 9 9 9 9 9 9 8 8 8 8 8 8 8 8 8 8 7 7 7 7 7 7 7 7 7 7 7 7 7 7 8 8 7 8 8 8 8 8
10 9 9 9 9 9 9 9 8 8 8 8 8 8 7 7 7 7 7 7 7 7 7 7 7 7 7 7 7 7 7 7 7 6 6 7 7 7 7 7 7 7 7
9 9 9 9 9 8 8 8 8 8 8 7 7 7 7 7 7 7 7 7 7 7 7 7 6 6 6 6 6 6 6 6 6 6 6 6 6 6 6 6 7 7 7
9 9 8 8 8 8 8 8 7 7 7 7 7 7 6 6 6 6 6 6 6 6 6 6 6 6 6 6 6 6 6 5 5 5 5 5 5 5 5 6 6 6 6
Wind_Speed
4 5 5 5 6 6 5 5 5 5 5 5 6 6 5 6 7 7 7 9 10 9 9 9 9 9 9 9 9 10 9 9 9 8 7 7 7 7 7 6 6 6 6
4 4 4 5 5 5 5 5 4 4 4 4 5 5 5 5 6 7 7 8 10 10 10 9 10 10 9 8 8 8 8 8 8 8 7 6 6 6 6 6 5 5 5
5 4 3 3 4 5 5 5 5 5 4 4 4 4 4 5 5 6 7 8 8 10 10 10 10 10 9 9 8 8 8 8 8 8 7 7 6 6 6 6 5 4 4
5 5 3 3 4 5 4 3 3 4 4 3 3 3 3 4 5 5 6 7 8 8 9 10 9 9 9 9 9 8 7 7 7 7 8 7 6 6 6 6 5 5 4
5 5 3 4 5 4 3 3 3 2 2 3 3 3 3 3 3 5 5 6 7 7 7 9 9 9 9 10 10 9 8 7 7 6 6 6 6 6 5 5 6 5 5
5 5 4 4 4 3 3 3 3 3 2 2 3 3 3 3 3 3 4 5 6 6 7 7 8 8 9 9 9 9 9 7 7 6 6 6 5 5 5 5 6 6 5
4 4 3 3 3 3 2 3 2 3 3 2 3 3 3 3 3 3 3 3 4 5 6 6 6 6 6 8 9 8 8 7 7 6 6 5 4 4 4 4 5 5 5
3 3 3 2 2 2 3 3 3 2 2 3 2 2 3 4 3 3 3 2 3 4 4 5 5 5 5 6 7 8 7 7 6 6 6 5 5 4 4 4 3 3 4
3 3 3 3 2 2 1 1 2 3 1 2 2 2 2 1 3 3 3 3 3 3 3 4 5 5 5 5 5 7 7 7 6 6 5 5 4 4 4 4 3 2 3
2 3 2 2 2 1 1 1 2 1 2 1 1 2 1 2 1 2 3 3 3 3 3 3 4 5 5 4 5 6 7 6 6 6 5 5 4 4 4 3 3 3 3
1 2 2 2 2 1 1 1 2 2 1 1 0 0 1 1 1 1 3 4 3 2 2 3 3 4 5 5 4 6 6 6 6 6 6 5 4 3 3 3 4 3 3
0 1 1 1 1 1 0 0 1 1 1 1 1 1 1 1 1 1 1 3 3 3 3 2 2 3 5 5 5 6 6 6 6 6 6 6 5 3 3 3 3 4 3
1 1 0 0 1 0 0 1 1 1 0 1 0 0 1 1 1 1 1 2 2 3 3 2 2 3 4 5 5 6 5 6 6 5 6 6 6 4 3 3 3 3 3
3 2 1 1 0 1 0 1 1 0 0 0 1 1 1 1 1 2 2 1 1 2 2 3 2 3 4 5 6 5 5 6 5 6 6 6 5 4 4 3 3 3 3
2 2 2 2 1 0 0 1 0 1 1 1 1 1 1 1 1 1 2 2 2 2 3 3 2 3 4 4 5 4 4 5 6 6 6 5 4 4 4 3 3 3 2
3 3 3 2 2 1 0 1 1 1 1 1 1 1 1 1 1 1 1 1 2 3 3 2 2 3 4 4 6 5 4 6 6 7 6 5 4 4 4 2 2 1 1
4 4 3 3 2 2 1 1 1 1 1 1 1 1 2 2 1 1 1 1 1 2 3 3 2 2 1 2 5 5 4 4 5 6 6 5 5 4 4 3 1 1 1
3 3 4 3 3 2 2 2 2 1 1 2 2 2 3 2 2 2 1 1 2 2 3 3 2 2 2 2 3 3 4 4 4 6 6 6 6 4 3 1 1 1 1
3 3 3 3 3 3 2 2 2 2 2 2 2 2 3 2 3 2 2 2 2 2 2 2 2 2 2 1 2 3 3 3 4 5 6 6 6 5 4 2 2 2 2
4 3 3 3 3 2 2 2 2 2 1 2 2 2 3 3 3 3 2 2 1 1 1 1 2 2 2 1 0 1 3 3 3 4 5 5 6 6 5 4 3 3 3
3 3 3 2 1 1 2 2 2 1 1 1 1 2 2 2 2 2 1 1 1 1 1 1 1 1 1 1 1 1 1 2 2 2 2 3 4 4 4 5 4 4 3
3 3 3 2 1 1 2 2 2 2 1 1 1 2 2 2 2 3 2 1 1 1 2 2 2 2 2 2 1 1 1 1 2 2 1 2 2 2 3 3 4 4 4
3 3 2 2 1 2 2 2 2 2 2 1 1 2 2 2 3 1 2 4 3 2 2 2 3 3 3 3 2 1 1 1 2 2 1 2 1 2 3 3 4 4 4
3 3 2 2 1 2 1 1 1 1 1 1 1 2 1 2 2 0 0 2 2 3 3 2 3 3 3 3 3 2 2 1 1 2 0 1 1 2 3 4 3 4 4
3 2 2 2 2 2 1 0 1 1 1 1 1 1 1 1 2 1 1 1 2 3 4 3 3 3 3 1 1 2 1 1 1 2 1 1 1 2 2 2 4 4 4
3 3 2 2 2 2 1 0 1 1 1 0 1 2 2 2 2 2 1 1 2 3 3 3 3 4 3 1 0 1 2 2 1 2 1 1 1 1 2 2 2 4 4
Wind_Direction
45 40 44 47 47 51 61 64 64 62 60 53 53 60 55 52 48 42 34 36 39 40 42 41 40 39 37 41 44 45 48 50 51 61 73 74 72 67 64 69 72 65 68
55 50 46 44 43 43 54 70 70 66 58 55 44 44 46 50 49 45 38 32 33 35 39 39 38 38 36 37 42 45 47 47 47 54 65 66 67 63 59 60 69 64 64
59 62 61 50 39 47 59 69 65 62 56 50 37 32 40 45 46 42 41 36 32 33 35 36 36 36 33 34 37 43 46 46 45 46 51 54 57 58 55 54 60 58 63
64 66 65 53 45 57 64 65 58 57 49 45 34 21 27 36 37 40 43 39 36 32 29 30 32 34 34 33 36 40 41 44 44 43 45 48 54 57 55 51 54 58 65
63 67 61 52 58 62 57 57 53 62 55 40 33 27 20 26 28 39 39 36 34 31 28 24 26 32 34 33 32 34 32 33 38 40 42 42 47 54 55 49 48 56 61
64 69 62 54 61 65 55 53 56 48 54 41 44 29 15 18 29 37 32 31 29 27 27 27 25 25 27 27 27 26 25 24 30 34 35 38 37 45 49 51 51 53 57
67 71 62 61 59 70 64 64 71 57 40 28 51 22 9 21 32 24 27 29 22 21 23 24 24 21 16 17 18 18 18 18 21 21 27 32 34 38 42 48 45 51 53
61 65 67 72 67 69 56 52 62 69 42 33 70 66 10 355 2 12 17 27 15 17 15 12 11 11 9 6 2 6 7 11 12 14 15 19 23 31 38 40 29 43 45
55 53 62 69 75 89 89 48 74 85 69 13 36 103 112 268 318 337 1 15 8 8 359 2 1 358 357 353 349 353 359 1 3 2 2 3 12 25 28 27 19 27 47
62 64 71 72 77 79 90 54 52 65 102 37 2 31 112 167 149 323 333 348 354 355 347 355 354 346 345 341 338 344 349 354 355 355 356 356 1 9 17 12 9 22 39
45 56 79 77 64 60 79 69 60 56 75 107 86 55 51 37 118 167 305 325 337 331 334 335 337 338 335 331 324 334 340 342 346 347 345 346 346 351 1 4 355 355 10
330 14 64 79 72 63 69 63 92 87 73 78 64 110 149 167 218 186 247 298 312 313 319 330 339 334 330 329 324 333 333 332 334 335 335 336 334 326 334 336 342 350 349
216 235 89 79 71 114 155 111 100 81 109 98 94 269 219 223 208 190 194 267 297 307 323 319 316 333 333 333 331 331 329 327 326 327 328 327 327 320 303 306 317 333 334
208 195 169 165 164 156 124 110 113 235 141 173 261 259 255 255 216 190 191 193 300 312 318 301 313 329 333 328 325 327 330 330 330 329 325 323 320 314 307 296 307 310 317
194 173 176 168 169 177 161 117 175 263 225 227 243 250 258 270 247 235 206 196 191 265 292 298 306 319 333 327 324 327 324 324 330 334 332 327 327 330 323 302 304 301 305
181 174 180 180 178 175 110 167 224 252 230 260 246 262 278 272 279 257 225 228 207 202 248 273 267 292 320 336 339 336 326 328 329 334 333 331 326 325 326 312 308 304 309
179 183 189 187 191 199 200 199 242 234 222 272 284 266 274 274 281 278 248 224 222 200 232 276 272 297 313 334 342 342 342 342 333 337 336 332 326 322 313 295 292 330 315
187 191 185 186 198 201 198 204 234 240 224 248 271 268 275 289 291 278 253 240 237 225 215 259 294 304 298 311 329 332 344 343 334 337 346 352 344 332 338 333 330 353 2
185 186 183 189 201 207 207 218 218 229 230 237 253 254 264 267 278 275 258 244 248 248 227 221 274 281 292 303 334 336 347 355 351 354 5 5 1 2 4 14 22 14 7
181 184 187 192 197 206 205 215 213 217 229 256 271 268 264 250 252 252 247 239 235 238 236 232 266 290 290 294 309 330 349 358 350 358 6 4 3 6 9 9 11 11 360
179 167 153 146 159 186 207 201 189 183 189 266 317 307 292 294 283 268 263 220 193 193 219 248 260 293 302 301 287 274 328 341 341 356 10 357 358 8 7 2 359 360 359
155 142 149 158 168 231 239 212 183 168 186 209 288 310 310 320 328 328 326 321 209 211 224 228 245 236 251 243 246 260 287 349 326 333 9 342 2 357 352 356 352 357 3
159 151 163 164 191 242 233 211 203 156 179 216 249 284 308 332 0 357 354 3 352 327 273 222 226 243 235 231 201 194 215 251 274 296 359 327 357 340 337 343 347 359 14
170 174 180 187 193 248 261 214 176 121 160 229 248 258 261 301 308 253 40 7 339 326 299 270 232 251 243 211 192 194 197 235 314 309 317 292 326 325 334 342 346 0 11
172 181 190 188 189 246 262 269 102 129 136 293 295 281 250 267 303 308 99 338 325 317 324 320 303 299 290 253 163 126 113 103 307 299 287 247 295 324 327 330 350 358 356
177 170 182 196 192 215 238 224 102 144 149 299 324 318 302 291 311 327 209 205 278 290 310 339 342 338 340 342 75 160 178 183 249 279 261 262 289 331 324 318 340 349 351
Height
1530 1529 1529 1529 1529 1528 1528 1528 1528 1527 1527 1527 1526 1526 1526 1525 1525 1524 1524 1524 1523 1523 1522 1522 1521 1520 1520 1519 1518 1517 1516 1516 1515 1514 1515 1515 1516 1516 1517 1518 1519 1520 1520
1531 1530 1530 1530 1529 1529 1529 1529 1528 1528 1528 1527 1527 1526 1526 1526 1525 1525 1524 1524 1524 1523 1523 1522 1522 1521 1520 1519 1519 1518 1518 1517 1517 1516 1516 1517 1516 1517 1518 1519 1519 1520 1520
1532 1531 1531 1531 1530 1530 1530 1529 1529 1529 1528 1528 1527 1527 1527 1526 1526 1525 1525 1524 1524 1523 1523 1522 1522 1521 1521 1520 1520 1519 1519 1518 1518 1517 1517 1517 1517 1518 1518 1519 1519 1520 1521
1533 1533 1532 1531 1531 1531 1530 1530 1529 1529 1528 1528 1528 1527 1527 1526 1526 1525 1525 1524 1524 1524 1523 1523 1522 1522 1521 1521 1520 1519 1519 1519 1518 1518 1517 1517 1518 1518 1518 1518 1519 1520 1520
1534 1533 1533 1532 1532 1531 1531 1530 1530 1529 1529 1528 1528 1527 1527 1526 1526 1525 1525 1525 1525 1524 1524 1523 1522 1522 1521 1521 1520 1519 1520 1519 1519 1518 1518 1517 1517 1518 1518 1518 1519 1520 1520
1534 1534 1533 1533 1532 1532 1531 1531 1530 1530 1529 1528 1527 1527 1527 1526 1526 1526 1526 1525 1525 1525 1524 1523 1523 1522 1521 1521 1520 1520 1520 1519 1519 1518 1518 1518 1517 1517 1518 1518 1519 1519 1520
1534 1534 1534 1533 1532 1532 1531 1531 1530 1530 1529 1528 1527 1527 1527 1526 1526 1526 1525 1525 1525 1525 1524 1523 1523 1522 1521 1521 1520 1520 1520 1519 1519 1518 1518 1518 1518 1517 1518 1518 1518 1519 1519
1535 1534 1534 1533 1533 1532 1531 1531 1530 1529 1529 1528 1528 1526 1526 1527 1526 1526 1525 1525 1524 1524 1524 1523 1522 1522 1521 1520 1520 1520 1519 1519 1518 1518 1518 1517 1517 1517 1517 1517 1518 1518 1519
1534 1534 1533 1533 1533 1532 1531 1531 1530 1530 1529 1529 1528 1528 1527 1526 1525 1525 1524 1524 1524 1523 1523 1523 1522 1521 1520 1520 1519 1519 1518 1518 1518 1517 1517 1517 1516 1516 1517 1517 1517 1517 1518
1534 1533 1533 1533 1532 1532 1531 1531 1530 1530 1529 1528 1528 1528 1528 1527 1526 1524 1524 1523 1523 1522 1522 1521 1521 1520 1520 1519 1519 1518 1518 1517 1517 1516 1516 1516 1516 1515 1516 1516 1517 1517 1517
1533 1533 1532 1532 1532 1531 1531 1530 1530 1529 1529 1528 1527 1527 1526 1526 1526 1525 1523 1522 1522 1521 1521 1520 1520 1519 1518 1518 1517 1517 1516 1516 1516 1515 1515 1515 1514 1514 1515 1515 1515 1515 1515
1531 1531 1531 1531 1530 1530 1530 1529 1529 1528 1528 1527 1527 1526 1526 1525 1525 1524 1523 1521 1520 1520 1519 1519 1518 1518 1517 1516 1516 1515 1515 1514 1514 1514 1513 1513 1513 1513 1513 1513 1513 1514 1514
1529 1529 1529 1529 1529 1529 1528 1528 1528 1527 1527 1526 1526 1525 1525 1524 1524 1523 1522 1520 1519 1518 1517 1517 1517 1516 1515 1514 1514 1514 1513 1513 1513 1512 1512 1511 1511 1511 1511 1511 1511 1511 1512
1528 1528 1528 1528 1527 1527 1527 1526 1526 1526 1525 1525 1524 1523 1523 1523 1522 1521 1521 1519 1517 1516 1515 1515 1515 1514 1514 1513 1512 1512 1511 1511 1510 1510 1509 1509 1509 1509 1509 1509 1509 1509 1510
1526 1526 1526 1526 1526 1526 1525 1525 1524 1524 1523 1523 1522 1522 1521 1521 1520 1519 1519 1518 1517 1515 1513 1512 1513 1512 1512 1511 1510 1509 1509 1508 1508 1507 1507 1506 1506 1506 1506 1506 1506 1507 1507
1524 1524 1524 1524 1523 1523 1523 1523 1522 1522 1521 1521 1520 1519 1519 1518 1517 1517 1516 1515 1515 1514 1512 1510 1510 1510 1509 1509 1508 1507 1506 1506 1505 1505 1504 1504 1503 1503 1503 1503 1504 1504 1504
1521 1521 1521 1521 1521 1521 1521 1520 1520 1519 1519 1518 1518 1517 1516 1516 1515 1514 1513 1512 1512 1511 1509 1508 1508 1507 1506 1506 1506 1505 1504 1503 1503 1502 1501 1501 1500 1500 1500 1500 1500 1501 1502
1518 1518 1518 1518 1518 1518 1518 1518 1518 1517 1516 1516 1515 1515 1514 1513 1512 1511 1510 1509 1509 1508 1507 1506 1505 1504 1504 1503 1503 1502 1501 1501 1500 1499 1499 1498 1497 1496 1495 1496 1497 1498 1499
1515 1515 1515 1515 1515 1515 1515 1515 1515 1515 1514 1513 1513 1512 1511 1510 1509 1508 1507 1507 1506 1505 1505 1503 1502 1502 1501 1501 1500 1500 1499 1498 1498 1497 1496 1495 1494 1492 1492 1492 1494 1495 1496
1511 1512 1512 1512 1513 1513 1513 1513 1513 1512 1511 1511 1510 1509 1509 1508 1507 1506 1505 1504 1503 1502 1502 1501 1500 1499 1499 1498 1498 1497 1496 1495 1495 1495 1494 1493 1492 1490 1490 1490 1492 1493 1494
1508 1508 1509 1509 1510 1510 1510 1510 1509 1509 1509 1508 1507 1507 1506 1505 1504 1503 1502 1501 1500 1500 1499 1498 1497 1497 1496 1496 1495 1495 1494 1493 1492 1492 1491 1491 1490 1489 1489 1489 1489 1490 1491
1505 1505 1505 1506 1506 1507 1507 1507 1507 1506 1505 1505 1504 1503 1503 1502 1501 1500 1500 1499 1498 1497 1496 1496 1495 1494 1494 1494 1493 1493 1492 1490 1489 1491 1489 1488 1488 1487 1487 1487 1487 1488 1488
1501 1501 1502 1502 1503 1503 1503 1503 1503 1502 1502 1501 1501 1500 1499 1498 1498 1497 1496 1495 1495 1494 1494 1494 1492 1492 1491 1491 1491 1490 1490 1489 1488 1488 1487 1485 1486 1485 1485 1485 1485 1486 1486
1497 1497 1498 1498 1499 1499 1499 1499 1499 1499 1498 1498 1498 1497 1496 1496 1495 1494 1493 1492 1492 1491 1491 1490 1489 1489 1489 1489 1489 1488 1488 1487 1487 1486 1485 1483 1483 1483 1483 1483 1483 1484 1484
1493 1494 1495 1495 1495 1495 1496 1496 1496 1495 1495 1495 1494 1494 1493 1493 1492 1491 1490 1489 1488 1488 1488 1487 1487 1487 1486 1486 1486 1486 1485 1485 1483 1483 1483 1482 1480 1480 1480 1481 1481 1481 1482
1490 1491 1491 1492 1492 1492 1492 1492 1492 1492 1491 1491 1491 1491 1490 1490 1489 1488 1487 1486 1485 1485 1484 1484 1484 1483 1483 1483 1483 1483 1482 1482 1481 1481 1481 1480 1479 1478 1478 1478 1479 1479 1479